Regional Weather Roundup
Issued by NWS

Home | Current Version | Previous Version | Graphics & Text | Print | Product List | Glossary On
Versions: 1 2 3 4 5 6 7 8 9 10 11 12 13 14 15 16 17 18 19 20 21 22 23 24 25 26 27 28 29 30 31 32 33 34 35 36 37 38 39 40 41 42 43 44 45 46 47 48 49 50
117
ASUS45 KABQ 132010
RWRNM
NEW MEXICO REGIONAL WEATHER ROUNDUP
NATIONAL WEATHER SERVICE ALBUQUERQUE NM
100 PM MST WED DEC 13 2017

NOTE: "FAIR" MEANS FEW OR NO CLOUDS BELOW 12,000 FEET AGL WITH NO
       SIGNIFICANT WEATHER OR OBSTRUCTIONS TO VISION.

      THIS PRODUCT IS RELEASED AS TWO VERSIONS.  ONE VERSION NEAR
      THE TOP OF THE HOUR CONTAINING PRELIMINARY DATA FROM ALBUQUERQUE
      AND OTHER STATIONS.  A FINAL VERSION WITH ADDITIONAL DATA IS
      ISSUED ABOUT 10 MINUTES AFTER THE HOUR.

NMZ501-503-504-510>518-132100-
NORTHWEST PLATEAU/NORTHCENTRAL MOUNTAINS

CITY           SKY/WX    TMP DP  RH WIND       PRES   REMARKS
FARMINGTON     FAIR      44   6  21 SW6       30.12F
LOS ALAMOS     FAIR      49   6  17 S8        30.13F
SANTA FE       FAIR      52   9  17 SW5       30.10F
TAOS           FAIR      55   5  13 N14       30.11F
ANGEL FIRE     FAIR      53   1  12 CALM      30.11F

$$
NMZ402-403-502-505>509-132100-
WESTCENTRAL MOUNTAINS/SOUTHWEST MOUNTAINS

CITY           SKY/WX    TMP DP  RH WIND       PRES   REMARKS
GALLUP         FAIR      53   4  13 SW3       30.14F
GRANTS         FAIR      54   6  14 N8        30.14F
SILVER CITY    FAIR      58  14  17 S5        30.11F

$$
NMZ407-409-411-412-132100-
SOUTHERN DESERTS

CITY           SKY/WX    TMP DP  RH WIND       PRES   REMARKS
DEMING         FAIR      59  15  18 VRB6      30.09F
LAS CRUCES     FAIR      58  12  16 CALM      30.10F
HOLLOMAN AFB   FAIR      62  11  13 CALM      30.10F
ALAMOGORDO     FAIR      57   9  14 S3        30.10F
T OR C         FAIR      55   4  12 E5        30.11F

$$
NMZ519>523-132100-
CENTRAL VALLEYS/CENTRAL HIGHLANDS

CITY           SKY/WX    TMP DP  RH WIND       PRES   REMARKS
ALBUQUERQUE    FAIR      50   5  16 W5        30.11F
DOUBLE EAGLE   SUNNY     52   9  17 W6        30.12F
MORIARTY ARPT  FAIR      60   9  13 N8        30.10F
CLINES CORNERS FAIR      57   5  12 E7G20     30.11F
BELEN          FAIR      50   4  15 CALM      30.12F
SOCORRO        FAIR      52   4  14 N8        30.11F

$$
NMZ524>526-539-540-132100-
SOUTHCENTRAL MOUNTAINS

CITY           SKY/WX    TMP DP  RH WIND       PRES   REMARKS
RUIDOSO        FAIR      55  -2   9 NW14G23   30.12F

$$
NMZ527>531-132100-
NORTHEAST HIGHLANDS/NORTHEAST PLAINS

CITY           SKY/WX    TMP DP  RH WIND       PRES   REMARKS
LAS VEGAS      FAIR      55   7  14 E13       30.10F
RATON          FAIR      56   4  12 NE9       30.06F
CLAYTON        FAIR      56   9  15 N22G29    30.05F

$$
NMZ532>537-132100-
EASTCENTRAL PLAINS

CITY           SKY/WX    TMP DP  RH WIND       PRES   REMARKS
SANTA ROSA     FAIR      60   9  13 NE14G20   30.05F
TUCUMCARI      FAIR      65   7  10 E18G30    30.01F
CANNON AFB     FAIR      61  10  13 E21       30.02F
CLOVIS AIRPORT FAIR      61  11  14 NE21G28   30.02F

$$
NMZ028-029-538-132100-
SOUTHEAST PLAINS

CITY           SKY/WX    TMP DP  RH WIND       PRES   REMARKS
ROSWELL        FAIR      61  14  16 S3        29.99F
ARTESIA        FAIR      61  14  16 CALM      30.00F
CARLSBAD       FAIR      60  19  20 SE7       29.98F
HOBBS          SUNNY     68   1   7 SW8       29.98F


$$




USA.gov is the U.S. government's official web portal to all federal, state and local government web resources and services.